Powrót do katalogu

COSMOS 1037

AktywnyMilitariaLEO
NORAD 11046·PAYLOAD·🇷🇺 Russia

Wystrzelony Oct 4, 1978 z Plesetsk Cosmodrome

Loading…

Następne Przeloty (najbliższe 24 godziny)

TLE

ŚwieżeSource: Space-Track

Epoka: Sep 14, 2026, 11:07 UTC

1 11046U 78091D   26257.46324372 -.00000010  00000-0  41389-4 0  9991
2 11046  74.0336 288.8244 0012417 161.9061 264.7743 12.48412064185034

Śledź COSMOS 1037 w czasie rzeczywistym z AllMySat

Download on the App Store